A Fire Weather Index for personal weather stations

(See below the table for background)
Legenda:
Laag (0-210)
Zeer hoog (490 - 630)

Matig (210 - 350)
Extreem (630 - 800)

Hoog (350 - 490)
Catastrophic (800+)


Flame  Flame
12.4
Datum Temp. (°C) Wind Snelh. (km/h) Neersl. (mm) RH Days since Rain pwsFWI
Voorspelling is actief (inclusief vandaag), waarden staan boven de rode lijn.
07/12/22 6,0 17,0 0,3 0,87 0 43,7
06/12/22 7,0 17,0 0,3 0,70 0 41,8
05/12/22 6,0 21,0 0,4 0,87 0 32,9
04/12/22 5,0 22,0 0,0 0,78 5 33,9
03/12/22 5,0 21,0 0,0 0,73 4 23,3
02/12/22 4,3 20,9 0,0 0,83 3 12,4
01/12/22 5,8 11,2 0,0 0,89 2 6,6
30/11/22 6,3 11,2 0,0 0,94 1 3,3
29/11/22 8,6 13,0 0,6 0,96 0 6,0
28/11/22 8,4 11,2 7,6 0,95 0 5,2
27/11/22 6,3 6,5 3,6 0,92 0 5,3
26/11/22 8,1 9,7 0,4 0,95 0 7,7
25/11/22 11,0 9,7 2,6 0,89 0 10,0
24/11/22 10,9 11,2 0,4 0,87 0 15,9
23/11/22 10,0 11,2 2,0 0,84 0 25,7
22/11/22 7,3 16,2 1,2 0,85 0 31,9
21/11/22 4,1 11,2 0,0 0,84 1 24,5
20/11/22 3,1 6,5 0,2 0,81 0 24,4
19/11/22 3,0 20,9 0,0 0,77 1 29,7
18/11/22 6,2 24,1 0,6 0,75 0 28,7
17/11/22 7,6 35,3 0,0 0,92 1 25,3
16/11/22 12,1 24,1 16,0 0,90 0 26,2
15/11/22 12,3 7,9 0,0 0,83 5 35,3
14/11/22 9,1 17,6 0,0 0,85 4 24,1
13/11/22 11,8 17,6 0,0 0,85 3 30,0
12/11/22 8,5 6,5 0,0 0,92 2 8,7
11/11/22 12,3 16,2 0,0 0,88 1 14,8
10/11/22 13,8 14,4 0,8 0,86 0 21,1
09/11/22 14,0 14,4 9,0 0,82 0 11,0
08/11/22 14,7 17,6 0,8 0,78 0 27,7

Science background here. Prediction: https://www.yourweather.co.uk/